PROMETHEUS 2-11 (47313 NORAD) Tracking and Keplerian Element Data
This shows tracking and keplerian element data for the satellite.
Feedback or suggestion? Click here.
Element | Value |
Catalog | 47313 |
Name | PROMETHEUS 2-11 |
Epoch Orbit | 639 |
Epoch Day | 60.1738006 |
Epoch Year | 2021 |
RAAN | 336.2816 |
Inclination | 60.6863 |
Eccentricity | 0.0019149 |
Argument of Perigee | 322.9137 |
Mean Anonmoly | 37.0625 |
Mean Motion | 15.21906688 |
Decay Rate | 2.709E-05 |
L1 | 1 47313U 21002E 21060.17380060 .00002709 00000-0 12935-3 0 9998 |
L2 | 2 47313 60.6863 336.2816 0019149 322.9137 37.0625 15.21906688 6396 |
Live tracking and technical data element details for PROMETHEUS 2-11 (NORAD 47313). PROMETHEUS 2-11 can be tracked NOW for your location showing map with azimuth and elevation plus other details from your city location.
Track the satellite on the map from your city or location and see movement details for azimuth, elevation, latitude, longitude, range, height, and movement on the map or in text.
IsCatalogInMostPopularTable: catalog: 47313, numindb: 10
Update: records affected: 1
GetName: 47313 PROMETHEUS 2-11
Hit Count: updated at: Tue, 02 Mar 2021 13:40:41 GMT